Location: ??????
(55.2000°N, 38.3000°E)
Time: 17:50:02
(UTC+00:00)

Cosmos 2297 - Pass Details

Date: 15 November 2025
Orbit: 836 x 856 km, 71.0° (Epoch: 14 December)

Event Time Altitude Azimuth Distance (km) Brightness Sun altitude
Exits shadow 01:53:56 33° 342° (NNW) 1,392 4.7 -26.1°
Maximum altitude 01:56:25 62° 51° (NE) 947 4.1 -25.8°
Drops below altitude 10° 02:02:00 10° 132° (SE) 2,450 6.7 -25.0°
Sets 02:04:27 0° 135° (SE) 3,380 7.4 -24.6°
